GW3435 Weather Reports


time (UTC)temp
C
wind
direction
speed
KPH
gust
KPH
rain 1hr
cm
rain 24hr
cm
rain mn
cm
humidity
%
barometer
mb
20260506153542 20 21 1.6 4.8 0.00 0.00 0.00 68 1012.9
20260506152558 18 34 4.8 9.7 0.00 0.00 0.00 70 1013.0
20260506151534 19 34 4.8 11.3 0.00 0.00 0.00 68 1013.0
20260506150529 18 47 4.8 9.7 0.00 0.00 0.00 69 1013.0
20260506145525 18 36 6.4 11.3 0.00 0.00 0.00 69 1013.0
20260506144541 18 41 4.8 6.4 0.00 0.00 0.00 70 1013.0
20260506143521 18 43 4.8 9.7 0.00 0.00 0.00 71 1013.0
20260506142542 18 45 4.8 9.7 0.00 0.00 0.00 70 1012.9
20260506141520 19 41 3.2 6.4 0.00 0.00 0.00 70 1013.1
20260506140535 19 47 3.2 6.4 0.00 0.00 0.00 69 1013.1
20260506135530 18 48 4.8 9.7 0.00 0.00 0.00 71 1013.0
20260506134525 18 42 6.4 11.3 0.00 0.00 0.00 70 1013.0
20260506133521 18 47 4.8 12.9 0.00 0.00 0.00 70 1013.1
20260506132517 19 43 4.8 9.7 0.00 0.00 0.00 68 1013.2
20260506131533 19 35 3.2 9.7 0.00 0.00 0.00 68 1013.3
20260506130529 19 31 4.8 9.7 0.00 0.00 0.00 69 1013.3
20260506125525 18 42 6.4 12.9 0.00 0.00 0.00 71 1013.5
20260506124521 18 48 4.8 9.7 0.00 0.00 0.00 72 1013.5
20260506123548 17 44 8.0 12.9 0.00 0.00 0.00 75 1013.7
20260506122517 18 48 8.0 12.9 0.00 0.00 0.00 74 1013.7
20260506121532 18 39 8.0 12.9 0.00 0.00 0.00 73 1013.8
20260506120528 18 53 4.8 11.3 0.00 0.00 0.00 72 1013.9
20260506115523 17 42 8.0 16.1 0.00 0.00 0.00 74 1013.9
20260506114518 18 39 8.0 14.5 0.00 0.00 0.00 74 1014.1
20260506113532 19 42 6.4 11.3 0.00 0.00 0.00 70 1014.2
20260506112528 19 47 9.7 14.5 0.00 0.00 0.00 67 1014.1
20260506111524 19 63 8.0 14.5 0.00 0.00 0.00 64 1014.1
20260506110519 20 62 4.8 11.3 0.00 0.00 0.00 58 1014.2
20260506105535 19 54 6.4 9.7 0.00 0.00 0.00 61 1014.2
20260506104531 19 38 3.2 9.7 0.00 0.00 0.00 63 1014.4
20260506103527 19 64 4.8 11.3 0.00 0.00 0.00 60 1014.4
20260506102543 18 48 6.4 11.3 0.00 0.00 0.00 63 1014.5
20260506101539 18 46 6.4 12.9 0.00 0.00 0.00 66 1014.6
20260506100534 19 48 4.8 11.3 0.00 0.00 0.00 62 1014.6
20260506095551 18 74 4.8 14.5 0.00 0.00 0.00 65 1014.6
20260506094526 17 45 9.7 16.1 0.00 0.00 0.00 64 1014.7
20260506093523 17 40 8.0 14.5 0.00 0.00 0.00 62 1014.7
20260506092518 18 38 9.7 17.7 0.00 0.00 0.00 62 1014.7
20260506091535 18 34 11.3 17.7 0.00 0.00 0.00 60 1014.6
20260506090530 19 46 8.0 14.5 0.00 0.00 0.00 57 1014.5
20260506085526 20 46 6.4 12.9 0.00 0.00 0.00 55 1014.4
20260506084542 19 32 8.0 12.9 0.00 0.00 0.00 53 1014.4
20260506083517 20 32 4.8 12.9 0.00 0.00 0.00 46 1014.4
20260506082533 20 35 6.4 12.9 0.00 0.00 0.00 46 1014.3
20260506081529 19 60 4.8 9.7 0.00 0.00 0.00 54 1014.2
20260506080525 18 48 4.8 11.3 0.00 0.00 0.00 58 1014.3
20260506072528 18 38 6.4 11.3 0.00 0.00 0.00 62 1014.3
20260506071524 17 41 4.8 11.3 0.00 0.00 0.00 59 1014.2
20260506070600 18 46 4.8 9.7 0.00 0.00 0.00 56 1014.1
20260506061518 18 303 0.0 3.2 0.00 0.00 0.00 58 1014.4
20260506060533 16 232 0.0 1.6 0.00 0.00 0.00 65 1014.5
20260506050526 15 248 0.0 1.6 0.00 0.00 0.00 69 1014.2
20260506044517 14 285 0.0 1.6 0.00 0.00 0.00 70 1013.9
20260506043533 13 261 0.0 0.0 0.00 0.00 0.00 72 1013.9
20260506042527 13 289 1.6 4.8 0.00 0.00 0.00 73 1013.9
20260506041523 12 287 1.6 3.2 0.00 0.00 0.00 76 1013.9
20260506040519 11 233 0.0 0.0 0.00 0.00 0.00 80 1013.9
20260506035535 10 280 1.6 3.2 0.00 0.00 0.00 82 1013.8
20260506034530 10 243 0.0 0.0 0.00 0.00 0.00 83 1013.7
20260506033526 9 225 0.0 0.0 0.00 0.00 0.00 84 1013.6
20260506032522 9 225 0.0 0.0 0.00 0.00 0.00 84 1013.6
20260506031518 9 225 0.0 0.0 0.00 0.00 0.00 84 1013.6
20260506030534 9 225 0.0 0.0 0.00 0.00 0.00 84 1013.6
20260506025530 9 238 0.0 0.0 0.00 0.00 0.00 84 1013.6
20260506024526 10 238 0.0 0.0 0.00 0.00 0.00 84 1013.5
20260506023522 10 219 0.0 0.0 0.00 0.00 0.00 83 1013.5
20260506022518 10 216 0.0 0.0 0.00 0.00 0.00 84 1013.6
20260506021534 9 228 0.0 0.0 0.00 0.00 0.00 85 1013.6
20260506020550 9 234 0.0 0.0 0.00 0.00 0.00 85 1013.5
20260506015525 9 235 0.0 0.0 0.00 0.00 0.00 85 1013.4
20260506014521 10 235 0.0 0.0 0.00 0.00 0.00 86 1013.4
20260506013517 10 235 0.0 0.0 0.00 0.00 0.00 86 1013.4
20260506012533 9 237 0.0 0.0 0.00 0.00 0.00 86 1013.5
20260506011529 10 237 0.0 0.0 0.00 0.00 0.00 86 1013.4
20260506010525 10 237 0.0 0.0 0.00 0.00 0.00 86 1013.4
20260506005521 10 238 0.0 0.0 0.00 0.00 0.00 87 1013.5
20260506004518 10 70 0.0 0.0 0.00 0.00 0.00 87 1013.4
20260506003533 10 52 0.0 0.0 0.00 0.00 0.00 87 1013.4
20260506002530 10 52 0.0 0.0 0.00 0.00 0.00 87 1013.6
20260506001525 11 52 0.0 0.0 0.00 0.00 0.00 87 1013.3
20260506000522 11 52 0.0 0.0 0.00 0.00 0.00 87 1013.4
20260505235518 11 52 0.0 0.0 0.00 0.00 0.00 87 1013.3
20260505234534 11 51 0.0 0.0 0.00 0.00 0.00 88 1013.4
20260505233530 11 97 0.0 0.0 0.00 0.00 0.00 88 1013.4
20260505232606 12 97 0.0 0.0 0.00 0.00 0.00 87 1013.5
20260505231521 12 97 0.0 0.0 0.00 0.00 0.00 87 1013.5
20260505230537 12 97 0.0 0.0 0.00 0.00 0.00 86 1013.5
20260505225533 12 97 0.0 0.0 0.00 0.00 0.00 85 1013.8
20260505224529 12 97 0.0 0.0 0.00 0.00 0.00 83 1013.7
20260505223525 12 97 0.0 0.0 0.00 0.00 0.00 82 1013.7
20260505222521 12 98 0.0 0.0 0.00 0.00 0.00 80 1013.8
20260505221517 12 98 0.0 0.0 0.00 0.00 0.00 80 1014.0
20260505220533 12 120 0.0 0.0 0.00 0.00 0.00 80 1014.0
20260505215529 12 130 0.0 0.0 0.00 0.00 0.00 81 1014.0
20260505214525 12 125 0.0 0.0 0.00 0.00 0.00 82 1014.0
20260505213520 12 105 0.0 1.6 0.00 0.00 0.00 83 1014.0
20260505212516 12 123 0.0 1.6 0.00 0.00 0.00 83 1014.1
20260505211552 12 117 0.0 0.0 0.00 0.00 0.00 83 1014.2
20260505210528 12 117 0.0 0.0 0.00 0.00 0.00 83 1014.2
20260505205524 13 117 0.0 0.0 0.00 0.00 0.00 82 1014.1
20260505204520 13 120 0.0 0.0 0.00 0.00 0.00 81 1014.3
20260505203535 13 97 0.0 0.0 0.00 0.00 0.00 80 1014.3
20260505202551 13 222 0.0 0.0 0.00 0.00 0.00 79 1014.2
20260505201527 15 70 0.0 0.0 0.00 0.00 0.00 75 1014.1
20260505200523 15 50 1.6 3.2 0.00 0.00 0.00 75 1013.9
20260505195519 15 92 0.0 3.2 0.00 0.00 0.00 76 1014.0
20260505194534 15 35 0.0 3.2 0.00 0.00 0.00 78 1013.9
20260505193530 14 64 0.0 3.2 0.00 0.00 0.00 81 1014.0
20260505192526 14 93 0.0 3.2 0.00 0.00 0.00 82 1014.0
20260505191521 14 64 0.0 1.6 0.00 0.00 0.00 83 1013.8
20260505190517 14 84 0.0 3.2 0.00 0.00 0.00 83 1013.7
20260505185533 14 83 1.6 6.4 0.00 0.00 0.00 83 1013.5
20260505184529 14 93 0.0 3.2 0.00 0.00 0.00 84 1013.5
20260505183525 15 113 0.0 3.2 0.00 0.00 0.00 83 1013.2
20260505182520 15 107 0.0 1.6 0.00 0.00 0.00 83 1013.1
20260505181516 15 98 0.0 3.2 0.00 0.00 0.00 83 1013.1
20260505180533 15 67 0.0 4.8 0.00 0.00 0.00 82 1013.1
20260505175529 16 105 0.0 0.0 0.00 0.00 0.00 82 1012.9
20260505174524 16 99 0.0 0.0 0.00 0.00 0.00 81 1012.9
20260505173520 16 88 3.2 4.8 0.00 0.00 0.00 81 1012.9
20260505172536 16 82 1.6 3.2 0.00 0.00 0.00 81 1013.0
20260505171532 16 70 4.8 11.3 0.00 0.00 0.00 80 1012.9
20260505170529 17 50 6.4 11.3 0.00 0.00 0.00 79 1012.9
20260505165524 17 53 4.8 12.9 0.00 0.00 0.00 79 1013.0
20260505164539 17 46 6.4 14.5 0.00 0.00 0.00 78 1012.9
20260505163535 17 42 6.4 11.3 0.00 0.00 0.00 78 1012.9
20260505162531 17 56 4.8 9.7 0.00 0.00 0.00 79 1012.9
20260505161547 17 42 6.4 12.9 0.00 0.00 0.00 80 1012.9
20260505160522 17 41 8.0 12.9 0.00 0.00 0.00 80 1012.8